Weather in Tsevlo

Russia / Pskov Oblast     57°02′43″N   30°16′47″E
temp.,
°C
wind,
m/s
gust,
m/s
humid.,
%
clouds,
%
prec.,
mm/h
press.,
hPa
HPBL,
m
14 april, wed
wed1400:00+10nw2597100 1.1 1017271
03:00+7nnw3795100 2.1 1017317
06:00+4nnw4994100 3.6 1017366
09:00+4nnw4894100 7.8 1018440
12:00+3nnw3892100 0.5 1020441
15:00+4n3788100 0.6 1021442
18:00+4nne3886100 0.0 1021501
21:00+4nne31087100 0.0 1022446
15 april, thu
thu1500:00+4nne41189100 0.0 1022510
03:00+4nne41381100 0.0 1022627
06:00+3nne51378100 0.0 1022577
09:00+3nne51382100 0.0 1023591
12:00+5ne51287100 1.2 1023758
15:00+5nne61392100 3.8 1022832
18:00+5ne61392100 1.3 1023781
21:00+5ne51393100 3.7 1023788
16 april, fri
fri1600:00+5ne5139298 1.4 1023727
03:00+4ne5139185 1.4 1023664
06:00+4ne4129250 0.0 1023544
09:00+5ne51186100 0.0 1023562
12:00+6ne41189100 0.9 1024667
15:00+10ene5979100 1.1 1024927
18:00+11ene51075100 0.0 10241043
21:00+8ne41280100 0.0 1025475
17 april, sat
sat1700:00+6ne41282100 0.0 1026453
03:00+5ne41180100 0.0 1026371
06:00+4ne41182100 0.0 1027337
09:00+6ene4973100 0.0 1028453
12:00+11ene4760100 0.0 1028923
15:00+13ene5752100 0.0 10271348
18:00+13ene4856100 0.0 1027752
21:00+8ene3107333 0.0 1028217
18 april, sun
sun1800:00+6ene3107162 0.0 1029222
03:00+4ene397962 0.0 1029205
06:00+2ene28865 0.0 1030166
09:00+8e47602 0.0 1030401
12:00+13e46415 0.0 10291278
15:00+15e45345 0.0 10291685
18:00+14e35415 0.0 10281006
21:00+8e366433 0.0 102998